NOAA 16 DEB, 41378

Orbit data source: Space-Track

NOAA 16 DEB, 41378 is space debris in SSO originally from a launch on Thu, 21 Sep 2000 UTC launched from the Air Force Western Test Range (AFWTR). Debris objects in space refer to the collection of defunct objects orbiting the Earth. Examples of debris include non-operational satellites, rocket bodies, and fragments generated from explosions, collisions, or faulty payload assembly.

Loading next visibility...
Identifier
41378, 2000-055JX
Orbit
SSO
Country
Flag of USUS
Related business
Manufacturer
Unknown
Mission
Spacecraft
Bus & Motor
Unknown
Mass
Unknown
Launch date (UTC)
2000-09-21 (25 years ago)
Launch vehicle
Unknown
Launch site
Air Force Western Test Range (AFWTR)
Object type
Payload
Rocket body
Debris
Shape & HBR
Unknown shape, 0.1 m
Radar Cross Section
Small (<0.1 m²)

Expand to show TLE details & history
Last TLE update: 4 days ago

TLE from 4 days ago
0 NOAA 16 DEB
1 41378U 00055JX  25346.47560028  .00005051  00000-0  24502-2 0  9991
2 41378  98.6404   1.3347 0041149 316.9755  42.8206 14.18334302509868
Epoch: 2025-12-12T11:24Z
TLE epoch observation values (Epoch: 2025-12-12T11:24:51.864Z)
Latitude
0.00002°
Longitude
108.70191°
Altitude
812.2 km
Speed
7.458 km/s
True Right ascension
00h 05m 20s
True Declination
0° 00' 00"
Sunlit
Object was in daylight at epoch
Visualization orbit readout
Latitude
Unknown
Longitude
Unknown
Altitude
Unknown
Speed
Unknown
Apparent Right ascension
Unknown
Apparent Declination
Unknown
Sunlit
N/A
Visualization observer readout
Local Sidereal Time
22:12:25
Azimuth
Unknown
Elevation
Unknown
Doppler factor
Unknown
Orbital elements
Apogee altitude
857.802 km
Perigee altitude
798.496 km
Semi-major axis
7,206.286 km
Eccentricity
0.00411
Inclination
98.6404°
RAAN
1.3347°
Arg. of periapsis
316.9755°
True anomaly
43.14232°
Mean anomaly
42.8206°
Eccentric anomaly
42.98134°
Mean motion
3.54794 °/min
Orbital period
101.47 mins
BSTAR
0.0024502
Loading maneuver chart data...
Computing Atmospheric mass density...
Loading historical data...
Loading historical data...
Loading historical data...
Loading historical data...
Loading historical data...
Loading historical data...
Loading historical data...

Documentation

Showing up to 5 results
|